Location: Pasadena-CA
(34.1440°N, 118.1100°W)
Time: 03:31:36
(UTC-07:00)

FALCONSAT 3 - Pass Details

Date: 27 June 2022
Orbit: 395 x 399 km, 35.4° (Epoch: 07 August)

Event Time Altitude Azimuth Distance (km) Brightness Sun altitude
Exits shadow 03:33:19 12° 120° (ESE) 1,294 ? -21.4°
Drops below altitude 10° 03:33:38 10° 119° (ESE) 1,424 ? -21.4°
Sets 03:35:45 0° 115° (ESE) 2,277 ? -21.1°
